Time,TemperatureF,DewpointF,PressureIn,WindDirection,WindDirectionDegrees,WindSpeedMPH,WindSpeedGustMPH,Humidity,HourlyPrecipIn,Conditions,Clouds,dailyrainin,SolarRadiationWatts/m^2,SoftwareType,DateUTC
2014-02-25 00:02:00,26.0,14.0,-100.00,North,-999,0.0,1.0,60,0.00,,,0.00,0.000000,,2014-02-25 05:02:00,
2014-02-25 00:43:00,27.0,15.0,-100.00,North,-999,0.0,2.0,59,0.00,,,0.00,0.000000,,2014-02-25 05:43:00,
2014-02-25 00:57:00,27.0,15.0,-100.00,North,-999,0.0,2.0,59,0.00,,,0.00,0.000000,,2014-02-25 05:57:00,
2014-02-25 01:06:00,27.0,15.0,-100.00,North,-999,0.0,2.0,59,0.00,,,0.00,0.000000,,2014-02-25 06:06:00,
2014-02-25 01:42:00,27.0,14.0,-100.00,North,-999,0.0,1.0,57,0.00,,,0.00,0.000000,,2014-02-25 06:42:00,
2014-02-25 01:53:00,27.0,14.0,-100.00,North,-999,0.0,1.0,57,0.00,,,0.00,0.000000,,2014-02-25 06:53:00,
2014-02-25 02:02:00,27.0,14.0,-100.00,North,-999,0.0,1.0,57,0.00,,,0.00,0.000000,,2014-02-25 07:02:00,
2014-02-25 02:42:00,27.0,11.0,-100.00,NW,324,2.0,6.0,51,0.00,,,0.00,0.000000,,2014-02-25 07:42:00,
2014-02-25 02:52:00,27.0,11.0,-100.00,NW,324,2.0,6.0,51,0.00,,,0.00,0.000000,,2014-02-25 07:52:00,
2014-02-25 03:01:00,27.0,11.0,-100.00,NW,324,2.0,6.0,51,0.00,,,0.00,0.000000,,2014-02-25 08:01:00,
2014-02-25 03:42:00,27.0,10.0,-100.00,NNE,12,4.0,10.0,48,0.00,,,0.00,0.000000,,2014-02-25 08:42:00,
2014-02-25 03:52:00,27.0,10.0,-100.00,NNE,12,4.0,10.0,48,0.00,,,0.00,0.000000,,2014-02-25 08:52:00,
2014-02-25 04:02:00,27.0,10.0,-100.00,NNE,12,4.0,10.0,48,0.00,,,0.00,0.000000,,2014-02-25 09:02:00,
2014-02-25 04:43:00,27.0,9.0,-100.00,NNE,27,2.0,11.0,47,0.00,,,0.00,0.000000,,2014-02-25 09:43:00,
2014-02-25 04:54:00,27.0,9.0,-100.00,NNE,27,2.0,11.0,47,0.00,,,0.00,0.000000,,2014-02-25 09:54:00,
2014-02-25 05:03:00,27.0,9.0,-100.00,NNE,27,2.0,11.0,47,0.00,,,0.00,0.000000,,2014-02-25 10:03:00,
2014-02-25 05:42:00,26.0,9.0,-100.00,ENE,58,4.0,10.0,48,0.00,,,0.00,0.000000,,2014-02-25 10:42:00,
2014-02-25 05:53:00,26.0,9.0,-100.00,ENE,58,4.0,10.0,48,0.00,,,0.00,0.000000,,2014-02-25 10:53:00,
2014-02-25 06:02:00,26.0,9.0,-100.00,ENE,58,4.0,10.0,48,0.00,,,0.00,0.000000,,2014-02-25 11:02:00,
2014-02-25 06:43:00,24.0,13.0,-100.00,ENE,58,4.0,16.0,62,0.00,,,0.00,0.000000,,2014-02-25 11:43:00,
2014-02-25 06:53:00,24.0,13.0,-100.00,ENE,58,4.0,16.0,62,0.00,,,0.00,0.000000,,2014-02-25 11:53:00,
2014-02-25 07:02:00,24.0,13.0,-100.00,ENE,58,4.0,16.0,62,0.00,,,0.00,0.000000,,2014-02-25 12:02:00,
2014-02-25 07:42:00,24.0,16.0,-100.00,NE,46,2.0,7.0,70,0.00,,,0.00,0.000000,,2014-02-25 12:42:00,
2014-02-25 07:52:00,24.0,16.0,-100.00,NE,46,2.0,7.0,70,0.00,,,0.00,0.000000,,2014-02-25 12:52:00,
2014-02-25 08:02:00,24.0,16.0,-100.00,NE,46,2.0,7.0,70,0.00,,,0.00,0.000000,,2014-02-25 13:02:00,
2014-02-25 08:42:00,24.0,16.0,-100.00,NE,51,2.0,6.0,72,0.00,,,-99.99,8.000000,,2014-02-25 13:42:00,
2014-02-25 08:53:00,24.0,16.0,-100.00,NE,51,2.0,6.0,72,0.00,,,-99.99,8.000000,,2014-02-25 13:53:00,
2014-02-25 09:01:00,24.0,16.0,-100.00,NE,51,2.0,6.0,72,0.00,,,-99.99,8.000000,,2014-02-25 14:01:00,
2014-02-25 09:42:00,25.0,17.0,-100.00,NE,50,2.0,5.0,70,0.00,,,0.00,83.000000,,2014-02-25 14:42:00,
2014-02-25 09:52:00,25.0,17.0,-100.00,NE,50,2.0,5.0,70,0.00,,,0.00,83.000000,,2014-02-25 14:52:00,
2014-02-25 10:02:00,25.0,17.0,-100.00,NE,50,2.0,5.0,70,0.00,,,0.00,83.000000,,2014-02-25 15:02:00,
2014-02-25 10:44:00,30.0,17.0,-100.00,ESE,111,2.0,5.0,58,0.00,,,0.00,293.000000,,2014-02-25 15:44:00,
2014-02-25 10:54:00,30.0,17.0,-100.00,ESE,111,2.0,5.0,58,0.00,,,0.00,293.000000,,2014-02-25 15:54:00,
2014-02-25 11:03:00,30.0,17.0,-100.00,ESE,111,2.0,5.0,58,0.00,,,0.00,293.000000,,2014-02-25 16:03:00,
2014-02-25 11:42:00,32.0,15.0,-100.00,NNW,334,4.0,8.0,50,0.00,,,0.00,374.000000,,2014-02-25 16:42:00,
2014-02-25 11:53:00,32.0,15.0,-100.00,NNW,334,4.0,8.0,50,0.00,,,0.00,374.000000,,2014-02-25 16:53:00,
2014-02-25 12:02:00,32.0,15.0,-100.00,NNW,334,4.0,8.0,50,0.00,,,0.00,374.000000,,2014-02-25 17:02:00,
2014-02-25 12:43:00,33.0,15.0,-100.00,NNE,29,3.0,10.0,48,0.00,,,0.00,572.000000,,2014-02-25 17:43:00,
2014-02-25 12:52:00,33.0,15.0,-100.00,NNE,29,3.0,10.0,48,0.00,,,0.00,572.000000,,2014-02-25 17:52:00,
2014-02-25 13:01:00,33.0,15.0,-100.00,NNE,29,3.0,10.0,48,0.00,,,0.00,572.000000,,2014-02-25 18:01:00,
2014-02-25 13:43:00,32.0,15.0,-100.00,NNE,24,3.0,9.0,48,0.00,,,0.00,286.000000,,2014-02-25 18:43:00,
2014-02-25 13:52:00,32.0,15.0,-100.00,NNE,24,3.0,9.0,48,0.00,,,0.00,286.000000,,2014-02-25 18:52:00,
2014-02-25 14:02:00,32.0,15.0,-100.00,NNE,24,3.0,9.0,48,0.00,,,0.00,286.000000,,2014-02-25 19:02:00,
2014-02-25 14:42:00,34.0,15.0,-100.00,North,352,4.0,10.0,45,0.00,,,0.00,261.000000,,2014-02-25 19:42:00,
2014-02-25 14:52:00,34.0,15.0,-100.00,North,352,4.0,10.0,45,0.00,,,0.00,261.000000,,2014-02-25 19:52:00,
2014-02-25 15:02:00,34.0,15.0,-100.00,North,352,4.0,10.0,45,0.00,,,0.00,261.000000,,2014-02-25 20:02:00,
2014-02-25 15:42:00,33.0,15.0,-100.00,North,3,3.0,11.0,47,0.00,,,0.00,249.000000,,2014-02-25 20:42:00,
2014-02-25 15:52:00,33.0,15.0,-100.00,North,3,3.0,11.0,47,0.00,,,0.00,249.000000,,2014-02-25 20:52:00,
2014-02-25 16:02:00,33.0,15.0,-100.00,North,3,3.0,11.0,47,0.00,,,0.00,249.000000,,2014-02-25 21:02:00,
2014-02-25 16:43:00,32.0,15.0,-100.00,North,355,4.0,10.0,48,0.00,,,0.00,144.000000,,2014-02-25 21:43:00,
2014-02-25 16:53:00,32.0,15.0,-100.00,North,355,4.0,10.0,48,0.00,,,0.00,144.000000,,2014-02-25 21:53:00,
2014-02-25 17:02:00,32.0,15.0,-100.00,North,355,4.0,10.0,48,0.00,,,0.00,144.000000,,2014-02-25 22:02:00,
2014-02-25 17:43:00,31.0,15.0,-100.00,NNW,346,5.0,12.0,50,0.00,,,0.00,160.000000,,2014-02-25 22:43:00,
2014-02-25 17:53:00,31.0,15.0,-100.00,NNW,346,5.0,12.0,50,0.00,,,0.00,160.000000,,2014-02-25 22:53:00,
2014-02-25 18:02:00,31.0,15.0,-100.00,NNW,346,5.0,12.0,50,0.00,,,0.00,160.000000,,2014-02-25 23:02:00,
2014-02-25 18:42:00,29.0,14.0,-100.00,NW,326,4.0,12.0,53,0.00,,,0.00,48.000000,,2014-02-25 23:42:00,
2014-02-25 18:53:00,29.0,14.0,-100.00,NW,326,4.0,12.0,53,0.00,,,0.00,48.000000,,2014-02-25 23:53:00,
2014-02-25 19:02:00,29.0,14.0,-100.00,NW,326,4.0,12.0,53,0.00,,,0.00,48.000000,,2014-02-26 00:02:00,
2014-02-25 19:42:00,27.0,13.0,-100.00,North,0,4.0,11.0,56,0.00,,,0.00,2.000000,,2014-02-26 00:42:00,
2014-02-25 19:52:00,27.0,13.0,-100.00,North,0,4.0,11.0,56,0.00,,,0.00,2.000000,,2014-02-26 00:52:00,
2014-02-25 20:01:00,27.0,13.0,-100.00,North,0,4.0,11.0,56,0.00,,,0.00,2.000000,,2014-02-26 01:01:00,
2014-02-25 20:42:00,27.0,14.0,-100.00,North,355,3.0,10.0,57,0.00,,,0.00,0.000000,,2014-02-26 01:42:00,
2014-02-25 20:52:00,27.0,14.0,-100.00,North,355,3.0,10.0,57,0.00,,,0.00,0.000000,,2014-02-26 01:52:00,
2014-02-25 21:02:00,27.0,14.0,-100.00,North,355,3.0,10.0,57,0.00,,,0.00,0.000000,,2014-02-26 02:02:00,
2014-02-25 21:42:00,26.0,9.0,-100.00,North,3,5.0,12.0,49,0.00,,,-99.99,0.000000,,2014-02-26 02:42:00,
2014-02-25 21:52:00,26.0,9.0,-100.00,North,3,5.0,12.0,49,0.00,,,-99.99,0.000000,,2014-02-26 02:52:00,
2014-02-25 22:02:00,26.0,9.0,-100.00,North,3,5.0,12.0,49,0.00,,,-99.99,0.000000,,2014-02-26 03:02:00,
2014-02-25 22:43:00,24.0,14.0,-100.00,North,357,3.0,12.0,64,0.00,,,0.00,0.000000,,2014-02-26 03:43:00,
2014-02-25 22:53:00,24.0,14.0,-100.00,North,357,3.0,12.0,64,0.00,,,0.00,0.000000,,2014-02-26 03:53:00,
2014-02-25 23:03:00,24.0,14.0,-100.00,North,357,3.0,12.0,64,0.00,,,0.00,0.000000,,2014-02-26 04:03:00,
2014-02-25 23:43:00,23.0,15.0,-100.00,NW,325,2.0,11.0,71,0.00,,,0.00,0.000000,,2014-02-26 04:43:00,
2014-02-25 23:53:00,23.0,15.0,-100.00,NW,325,2.0,11.0,71,0.00,,,0.00,0.000000,,2014-02-26 04:53:00,